[[{"header":{"parameterUnit":"m.s-1","parameterCategory":1,"la1":30.2991,"la2":30.254,"lo1":-89.0895,"lo2":-89.0444,"dy":0.0017,"dx":0.0017,"nx":28,"ny":28,"refTime":"2025-05-25T21:00:00:Z","depth":0,"parameterNumber":2,"parameterNumberName":"U-component_of_WINDS"},"data":[0,0,0,0,0,0,0,0,0,0,0,0,0,0,0,0,0,0,0,0,0,0,0,0,0,0,0,0,0,0,0,0,0,0,0,0,0,0,0,0,0,0,0,0,0,0,0,0,0,0,0,0,0,0,0,0,0,0,0.3161,0.3161,0,0.3214,0.3215,0.3215,0.3206,0.3205,0.3204,0.3203,0.3259,0.3261,0.3264,0,0,0,0,0,0,0,0,0,0,0,0,0,0.3051,0.3053,0.3161,0.3161,0.3162,0.3214,0.3215,0.3215,0.3206,0.3205,0.3204,0.3203,0.3258,0.3261,0.3264,0,0,0,0,0,0,0,0,0,0,0,0,0,0.3101,0.3054,0.3161,0.3164,0.3165,0.3214,0.3215,0.3216,0.3206,0.3205,0.3204,0.3202,0.3257,0.3261,0.3264,0.3314,0,0,0.3275,0.3277,0,0,0,0,0,0,0,0,0.3098,0.3105,0.3163,0.3164,0.3165,0.3202,0.3196,0.3249,0.3207,0.3191,0.3203,0.3202,0.3241,0.3246,0.3259,0.3317,0.3319,0.3275,0.3278,0.3279,0.328,0,0,0,0,0,0,0,0.3095,0.3103,0.3182,0.3163,0.3165,0.3162,0.3168,0.3206,0.3223,0.3192,0.3191,0.3198,0.3242,0.3256,0.326,0.332,0.3275,0.3279,0.3281,0.3282,0.342,0.3422,0,0,0,0,0,0,0.309,0.31,0.318,0.3183,0.3127,0.3166,0.3172,0.3191,0.3223,0.3226,0.3199,0.3197,0.325,0.3256,0.3262,0.3322,0.3279,0.3282,0.3284,0.3419,0.3421,0.3422,0,0,0,0,0,0,0.3088,0.3097,0.3178,0.3141,0.3152,0.3169,0.3191,0.3193,0.3207,0.3228,0.3231,0.321,0.325,0.3257,0.3301,0.3324,0.3284,0.3287,0.3417,0.3419,0.3421,0.3443,0,0,0,0,0,0,0.3085,0.3097,0.3116,0.3142,0.3154,0.3216,0.3193,0.3195,0.3213,0.3212,0.324,0.3243,0.3249,0.3296,0.3305,0.3328,0.329,0.3415,0.3418,0.3421,0.344,0.3445,0.345,0,0,0,0,0,0.3081,0.312,0.3117,0.3127,0.3178,0.3217,0.3224,0.323,0.3215,0.3235,0.3248,0.3242,0.332,0.33,0.331,0.3335,0.3413,0.3417,0.342,0.3438,0.3444,0.345,0,0,0,0,0,0,0.3097,0.3124,0.312,0.317,0.3191,0.3216,0.324,0.3237,0.3264,0.3261,0.3267,0.3274,0.3318,0.3331,0.3309,0.3384,0.3365,0.337,0.3374,0.3381,0.3386,0.3382,0.3293,0,0,0,0,0,0.3107,0.3136,0.3158,0.3199,0.321,0.3223,0.3241,0.3243,0.3266,0.3275,0.3292,0.3314,0.3343,0.3363,0.3391,0.3442,0.3447,0.3463,0.3468,0.3472,0.3477,0.3504,0.3511,0.3434,0.3434,0.3434,0,0,0.3126,0.3144,0.3163,0.3203,0.322,0.325,0.3231,0.3264,0.3287,0.328,0.3322,0.3335,0.3361,0.3407,0.3429,0.342,0.35,0.3477,0.348,0.3483,0.3508,0.3515,0.3522,0.3436,0.3436,0.3435,0,0,0.3177,0.3194,0.323,0.3247,0.3273,0.3281,0.3289,0.3314,0.3322,0.3364,0.336,0.3387,0.3438,0.3455,0.3471,0.3528,0.3523,0.3537,0.3563,0.3589,0.3595,0.36,0.362,0.3627,0.3541,0.3541,0.3541,0,0.3199,0.3244,0.3249,0.3282,0.3299,0.3294,0.333,0.3346,0.338,0.3392,0.3381,0.3444,0.3461,0.3511,0.3525,0.3538,0.3548,0.3534,0.3594,0.3599,0.3604,0.3623,0.363,0.3543,0.3543,0.3543,0.3542,0,0.3268,0.33,0.3326,0.3357,0.3378,0.3412,0.3422,0.3442,0.3442,0.3452,0.3494,0.3514,0.3545,0.3558,0.3559,0.3608,0.3601,0.3592,0.3572,0.3613,0.3631,0.3638,0.3545,0.3544,0.3544,0.3544,0,0,0.3333,0.3365,0.3375,0.3389,0.3416,0.344,0.3474,0.3504,0.3521,0.3544,0.3572,0.3615,0.3606,0.3624,0.3627,0.3649,0.3692,0.3637,0.3638,0.3646,0.3746,0.3753,0.3761,0.3689,0.369,0.3691,0.3744,0,0.3386,0.3445,0.345,0.3503,0.3532,0.3527,0.3556,0.3576,0.3585,0.3611,0.3621,0.3651,0.3637,0.3647,0.367,0.3682,0.3712,0.3678,0.3715,0.3716,0.3708,0.377,0.3778,0.3827,0.3751,0.3752,0.3753,0,0.3456,0.348,0.3537,0.3558,0.3571,0.3597,0.3624,0.3649,0.3671,0.3676,0.3695,0.3695,0.3729,0.3708,0.3755,0.3732,0.3747,0.3755,0.3757,0.3761,0.3737,0.3775,0.3843,0.385,0.3764,0.3763,0.3762,0,0.3496,0.3543,0.3583,0.3595,0.3622,0.364,0.3652,0.3672,0.369,0.3714,0.3725,0.3753,0.3769,0.379,0.3797,0.3781,0.3844,0.3823,0.3849,0.3849,0.3863,0.3862,0.3933,0.3873,0.3873,0.3872,0.3872,0,0.3556,0.359,0.3601,0.3625,0.3663,0.3668,0.3705,0.3716,0.3734,0.376,0.3758,0.3782,0.379,0.3816,0.3821,0.3859,0.3866,0.3871,0.3872,0.3871,0.3871,0.3881,0.3878,0.3874,0.3874,0.3874,0.3873,0,0.3607,0.3616,0.3658,0.368,0.3686,0.3713,0.3731,0.3754,0.3762,0.3795,0.3803,0.3817,0.3847,0.3856,0.3892,0.3896,0.394,0.3938,0.3932,0.3932,0.3957,0.3954,0.4038,0.4049,0.3982,0.3982,0.3983,0,0.3644,0.367,0.3694,0.3711,0.3724,0.3751,0.3769,0.3774,0.3792,0.3818,0.3838,0.3867,0.3891,0.3939,0.3953,0.398,0.3979,0.4006,0.3983,0.3981,0.3978,0.3977,0.3979,0.401,0.4011,0.4012,0.4012,0,0.3709,0.3711,0.3737,0.3763,0.3784,0.3805,0.3825,0.3839,0.3847,0.3868,0.3898,0.3917,0.3953,0.3982,0.401,0.4022,0.4018,0.4019,0.4026,0.4026,0.4021,0.4023,0.3944,0.4017,0.4017,0.4016,0.4016,0.4016,0.3754,0.3776,0.3796,0.3824,0.384,0.3858,0.3881,0.3891,0.3916,0.3946,0.3948,0.398,0.4,0.4037,0.4051,0.4076,0.4068,0.4079,0.4082,0.4084,0.4086,0.4017,0.4081,0.4081,0.4081,0.4081,0.4081,0,0.3818,0.383,0.3855,0.3883,0.3905,0.3899,0.3921,0.3939,0.3968,0.3987,0.401,0.4044,0.4072,0.4086,0.4114,0.4131,0.413,0.4138,0.4137,0.414,0.4092,0.4082,0.4139,0.4139,0.4139,0.4139,0.4139,0.4139,0.3854,0.3891,0.3896,0.3941,0.3953,0.3984,0.3997,0.4014,0.4029,0.4067,0.409,0.4099,0.4116,0.4144,0.4169,0.4173,0.4183,0.4192,0.4195,0.4149,0.4143,0.4138,0.4129,0.4194,0.4194,0.4241,0.4241,0.4241]},{"header":{"parameterUnit":"m.s-1","parameterCategory":1,"la1":30.2991,"la2":30.254,"lo1":-89.0895,"lo2":-89.0444,"dy":0.0017,"dx":0.0017,"nx":28,"ny":28,"refTime":"2025-05-25T21:00:00:Z","depth":0,"parameterNumber":3,"parameterNumberName":"V-component_of_WINDS"},"data":[0,0,0,0,0,0,0,0,0,0,0,0,0,0,0,0,0,0,0,0,0,0,0,0,0,0,0,0,0,0,0,0,0,0,0,0,0,0,0,0,0,0,0,0,0,0,0,0,0,0,0,0,0,0,0,0,0,0,4.4494,4.4494,0,4.4498,4.4498,4.4498,4.4434,4.4433,4.4431,4.4429,4.4431,4.4433,4.4434,0,0,0,0,0,0,0,0,0,0,0,0,0,4.4432,4.4433,4.4494,4.4495,4.4495,4.4498,4.4498,4.4498,4.4435,4.4433,4.4431,4.4429,4.4431,4.4433,4.4435,0,0,0,0,0,0,0,0,0,0,0,0,0,4.445,4.4434,4.4494,4.4463,4.4461,4.4498,4.4498,4.4498,4.4435,4.4433,4.443,4.4428,4.443,4.4432,4.4435,4.4501,0,0,4.4442,4.4443,0,0,0,0,0,0,0,0,4.4449,4.4452,4.4468,4.4466,4.4463,4.4463,4.4476,4.4499,4.4436,4.4445,4.4429,4.4426,4.4444,4.4445,4.4451,4.4501,4.4501,4.4443,4.4444,4.4445,4.4446,0,0,0,0,0,0,0,4.4447,4.4451,4.4496,4.4468,4.4465,4.4449,4.4449,4.448,4.4459,4.4444,4.4439,4.4441,4.4442,4.4449,4.4451,4.4502,4.4443,4.4445,4.4446,4.4447,4.4606,4.4609,0,0,0,0,0,0,4.4451,4.4451,4.4496,4.4496,4.4449,4.4452,4.4452,4.4466,4.4458,4.4454,4.4443,4.4438,4.4446,4.4448,4.4451,4.4527,4.4445,4.4447,4.4449,4.4604,4.4607,4.461,0,0,0,0,0,0,4.445,4.4455,4.4495,4.4472,4.4476,4.4456,4.4472,4.4467,4.4474,4.4457,4.4453,4.4454,4.4444,4.4447,4.4489,4.4527,4.4449,4.4451,4.46,4.4605,4.4608,4.4682,0,0,0,0,0,0,4.4448,4.4455,4.4481,4.4473,4.4477,4.4535,4.4474,4.4469,4.4479,4.4472,4.4467,4.4463,4.4442,4.4486,4.4492,4.4529,4.4453,4.4597,4.4602,4.4607,4.4676,4.4688,4.4699,0,0,0,0,0,4.4446,4.4501,4.4482,4.4488,4.4509,4.4537,4.4539,4.4514,4.4482,4.4507,4.4496,4.4464,4.4522,4.4491,4.4497,4.4535,4.4594,4.4601,4.4607,4.4671,4.4686,4.4698,0,0,0,0,0,0,4.4512,4.4499,4.4478,4.4532,4.4537,4.4526,4.4557,4.4531,4.4543,4.4536,4.4504,4.4504,4.4551,4.4547,4.4513,4.4599,4.4552,4.456,4.4599,4.4613,4.4624,4.4624,4.4455,0,0,0,0,0,4.4533,4.4558,4.4545,4.4594,4.4597,4.4577,4.4588,4.4569,4.4571,4.4572,4.4565,4.4568,4.4587,4.46,4.4617,4.4676,4.4674,4.4705,4.4716,4.4726,4.4732,4.4763,4.4777,4.463,4.463,4.463,0,0,4.4577,4.4573,4.459,4.4607,4.4608,4.4633,4.4579,4.4608,4.4626,4.4577,4.4616,4.4611,4.4612,4.4663,4.4685,4.4662,4.4773,4.4734,4.4741,4.4743,4.4771,4.4785,4.4797,4.4634,4.4634,4.4633,0,0,4.4668,4.4668,4.4709,4.4711,4.4713,4.47,4.471,4.4704,4.4699,4.4738,4.4701,4.4722,4.4756,4.4758,4.4764,4.4859,4.4829,4.4865,4.4923,4.4953,4.4965,4.4975,4.5008,4.502,4.4872,4.4872,4.4872,0,4.4722,4.4759,4.4733,4.4765,4.4774,4.4731,4.4771,4.4775,4.4782,4.4789,4.4762,4.4804,4.4802,4.4853,4.4876,4.4882,4.4892,4.4865,4.4965,4.4975,4.4984,4.5015,4.5028,4.4876,4.4876,4.4875,4.4875,0,4.4824,4.4851,4.4884,4.4893,4.4905,4.4941,4.492,4.4936,4.4916,4.4905,4.4945,4.4942,4.4957,4.4968,4.4948,4.5016,4.5001,4.4971,4.4923,4.5003,4.5031,4.5043,4.4883,4.4881,4.488,4.4879,0,0,4.4956,4.4951,4.4964,4.4967,4.4967,4.4987,4.5022,4.5037,4.5051,4.5058,4.5085,4.5115,4.5087,4.5094,4.5074,4.5101,4.5176,4.5067,4.5067,4.5087,4.525,4.5272,4.5286,4.5157,4.5159,4.516,4.5249,0,4.5045,4.5104,4.5082,4.5142,4.5166,4.5126,4.5156,4.5159,4.5151,4.5169,4.5159,4.5181,4.5143,4.5146,4.5171,4.5161,4.5208,4.5155,4.5181,4.5182,4.5181,4.5301,4.5325,4.5409,4.526,4.5262,4.5264,0,4.5156,4.5168,4.5231,4.5227,4.5236,4.5264,4.5276,4.5295,4.5298,4.5289,4.5298,4.5272,4.5305,4.5259,4.5304,4.5269,4.5278,4.5275,4.5278,4.5278,4.5227,4.5304,4.5435,4.5447,4.5281,4.528,4.5278,0,4.5245,4.5277,4.5319,4.5323,4.532,4.534,4.534,4.534,4.5351,4.5362,4.5368,4.5383,4.5391,4.5403,4.5382,4.5351,4.543,4.5382,4.5423,4.5424,4.5441,4.544,4.5574,4.5449,4.5449,4.5449,4.5448,0,4.5345,4.5385,4.5359,4.5384,4.5428,4.5402,4.5446,4.5441,4.5442,4.5465,4.5432,4.5455,4.5427,4.5447,4.5431,4.547,4.5474,4.5468,4.5463,4.547,4.5471,4.5475,4.5469,4.5452,4.5451,4.5451,4.545,0,4.5451,4.5435,4.5478,4.5472,4.5472,4.5504,4.5498,4.5521,4.5511,4.5541,4.5547,4.553,4.5552,4.5533,4.5554,4.5544,4.5596,4.5583,4.5595,4.5591,4.5633,4.5629,4.5774,4.5791,4.5656,4.5658,4.5659,0,4.5516,4.5546,4.5543,4.5557,4.5559,4.5581,4.5593,4.5569,4.5582,4.5588,4.561,4.563,4.5644,4.5681,4.567,4.5686,4.5673,4.5722,4.5675,4.5681,4.5672,4.5671,4.5673,4.5732,4.5733,4.5735,4.5736,0,4.5632,4.5623,4.5641,4.5656,4.5671,4.5682,4.569,4.5703,4.5679,4.5695,4.5717,4.5728,4.575,4.577,4.5783,4.5781,4.5755,4.5751,4.5761,4.5768,4.5774,4.5771,4.562,4.5747,4.5746,4.5745,4.5745,4.5744,4.5718,4.5743,4.5745,4.5766,4.577,4.5779,4.5801,4.5793,4.5812,4.5828,4.5813,4.584,4.5843,4.5857,4.5859,4.588,4.5859,4.5874,4.5878,4.5881,4.5887,4.5772,4.5882,4.5882,4.5881,4.5881,4.5881,0,4.5832,4.5832,4.5852,4.5864,4.5881,4.5856,4.5864,4.5879,4.5903,4.5908,4.5923,4.5949,4.5968,4.596,4.5976,4.5994,4.5982,4.5999,4.5997,4.5997,4.5905,4.5894,4.6009,4.6009,4.6009,4.6009,4.6009,4.6009,4.5893,4.5933,4.5925,4.5967,4.5966,4.5993,4.6,4.6007,4.6011,4.6042,4.6058,4.6052,4.6052,4.6068,4.6084,4.6081,4.6089,4.611,4.6102,4.6016,4.6004,4.5992,4.5981,4.6112,4.6112,4.6193,4.6193,4.6194]}]]